Time,TemperatureF,DewpointF,PressureIn,WindDirection,WindDirectionDegrees,WindSpeedMPH,WindSpeedGustMPH,Humidity,HourlyPrecipIn,Conditions,Clouds,dailyrainin,SoftwareType,DateUTC
2013-02-19 10:01:00,38.0,38.0,32.17,ESE,112,3.0,6.0,99,0.00,,,0.00,,2013-02-19 18:01:00,
2013-02-19 10:11:00,38.0,38.0,32.17,ESE,112,3.0,6.0,99,0.00,,,0.00,,2013-02-19 18:11:00,
2013-02-19 10:21:00,39.0,39.0,30.76,ENE,66,0.0,6.0,99,0.00,,,0.00,,2013-02-19 18:21:00,
2013-02-19 10:31:00,39.0,39.0,30.76,East,92,1.0,4.0,99,0.00,,,0.00,,2013-02-19 18:31:00,
2013-02-19 10:41:00,39.0,39.0,30.76,East,84,1.0,5.0,99,0.00,,,0.00,,2013-02-19 18:41:00,
2013-02-19 10:51:00,39.0,39.0,30.76,East,84,1.0,5.0,99,0.00,,,0.00,,2013-02-19 18:51:00,
2013-02-19 11:01:00,40.0,40.0,30.76,ENE,73,1.0,4.0,99,0.00,,,0.00,,2013-02-19 19:01:00,
2013-02-19 11:11:00,40.0,40.0,30.76,ENE,73,1.0,4.0,99,0.00,,,0.00,,2013-02-19 19:11:00,
2013-02-19 11:21:00,42.0,42.0,30.76,NE,38,1.0,4.0,99,0.00,,,0.00,,2013-02-19 19:21:00,
2013-02-19 11:31:00,44.0,43.0,30.76,East,80,1.0,4.0,97,0.00,,,0.00,,2013-02-19 19:31:00,
2013-02-19 11:41:00,44.0,43.0,30.76,East,80,1.0,4.0,97,0.00,,,0.00,,2013-02-19 19:41:00,
2013-02-19 11:51:00,44.0,43.0,30.76,East,80,1.0,4.0,97,0.00,,,0.00,,2013-02-19 19:51:00,
2013-02-19 12:01:00,45.0,42.0,30.76,NNE,21,0.0,5.0,89,0.00,,,0.00,,2013-02-19 20:01:00,
2013-02-19 12:11:00,45.0,42.0,30.76,NNE,21,0.0,5.0,89,0.00,,,0.00,,2013-02-19 20:11:00,
2013-02-19 12:21:00,45.0,42.0,30.76,NNE,21,0.0,5.0,89,0.00,,,0.00,,2013-02-19 20:21:00,
2013-02-19 12:31:00,44.0,40.0,30.76,NNE,26,2.0,4.0,86,0.00,,,0.00,,2013-02-19 20:31:00,
2013-02-19 12:41:00,44.0,40.0,30.76,NNE,26,2.0,4.0,86,0.00,,,0.00,,2013-02-19 20:41:00,
2013-02-19 12:52:00,44.0,40.0,30.76,NNE,26,2.0,4.0,86,0.00,,,0.00,,2013-02-19 20:52:00,
2013-02-19 13:01:00,44.0,41.0,30.76,West,272,2.0,9.0,89,0.00,,,0.00,,2013-02-19 21:01:00,
2013-02-19 13:11:00,44.0,41.0,30.76,West,272,2.0,9.0,89,0.00,,,0.00,,2013-02-19 21:11:00,
2013-02-19 13:21:00,43.0,41.0,30.76,SW,215,1.0,6.0,91,0.00,,,0.00,,2013-02-19 21:21:00,
2013-02-19 13:31:00,43.0,41.0,30.76,SW,215,1.0,6.0,91,0.00,,,0.00,,2013-02-19 21:31:00,
2013-02-19 13:42:00,43.0,41.0,30.76,SW,215,1.0,6.0,91,0.00,,,0.00,,2013-02-19 21:42:00,
2013-02-19 13:51:00,44.0,41.0,30.76,WNW,292,0.0,4.0,88,0.00,,,0.00,,2013-02-19 21:51:00,
2013-02-19 14:01:00,44.0,41.0,30.76,West,277,2.0,6.0,90,0.00,,,0.00,,2013-02-19 22:01:00,
2013-02-19 14:11:00,44.0,41.0,30.76,West,277,2.0,6.0,90,0.00,,,0.00,,2013-02-19 22:11:00,
2013-02-19 14:21:00,44.0,41.0,30.76,West,277,2.0,6.0,90,0.00,,,0.00,,2013-02-19 22:21:00,
2013-02-19 14:31:00,45.0,42.0,30.76,WSW,249,1.0,6.0,88,0.00,,,0.00,,2013-02-19 22:31:00,
2013-02-19 14:41:00,45.0,42.0,30.76,WSW,249,1.0,6.0,88,0.00,,,0.00,,2013-02-19 22:41:00,
2013-02-19 14:52:00,45.0,41.0,30.76,WNW,293,3.0,13.0,86,0.00,,,0.00,,2013-02-19 22:52:00,
2013-02-19 15:01:00,45.0,41.0,30.76,WNW,295,2.0,9.0,87,0.00,,,0.00,,2013-02-19 23:01:00,
2013-02-19 15:11:00,45.0,41.0,30.76,WNW,295,2.0,9.0,87,0.00,,,0.00,,2013-02-19 23:11:00,
2013-02-19 15:21:00,44.0,40.0,30.76,NW,325,4.0,9.0,86,0.00,,,0.00,,2013-02-19 23:21:00,
2013-02-19 15:31:00,43.0,40.0,30.76,NW,326,2.0,8.0,90,0.00,,,0.00,,2013-02-19 23:31:00,
2013-02-19 15:41:00,43.0,40.0,30.76,NW,326,2.0,8.0,90,0.00,,,0.00,,2013-02-19 23:41:00,
2013-02-19 15:52:00,44.0,41.0,30.76,NNW,339,3.0,7.0,88,0.00,,,0.00,,2013-02-19 23:52:00,
2013-02-19 16:01:00,43.0,40.0,30.76,NW,323,2.0,8.0,89,0.00,,,0.00,,2013-02-20 00:01:00,
2013-02-19 16:11:00,43.0,40.0,30.76,NW,323,2.0,8.0,89,0.00,,,0.00,,2013-02-20 00:11:00,
2013-02-19 16:21:00,43.0,39.0,30.76,NW,311,5.0,11.0,87,0.00,,,0.00,,2013-02-20 00:21:00,
2013-02-19 16:31:00,44.0,39.0,30.76,NNW,332,3.0,10.0,84,0.00,,,0.00,,2013-02-20 00:31:00,
2013-02-19 16:41:00,44.0,39.0,30.76,NNW,332,3.0,10.0,84,0.00,,,0.00,,2013-02-20 00:41:00,
2013-02-19 16:51:00,44.0,39.0,30.76,NNW,332,3.0,10.0,84,0.00,,,0.00,,2013-02-20 00:51:00,
2013-02-19 17:02:00,43.0,40.0,30.76,NNW,329,3.0,11.0,88,0.00,,,0.00,,2013-02-20 01:02:00,
2013-02-19 17:11:00,43.0,40.0,30.76,NNW,329,3.0,11.0,88,0.00,,,0.00,,2013-02-20 01:11:00,
2013-02-19 17:21:00,42.0,39.0,30.76,NW,322,2.0,8.0,90,0.00,,,0.00,,2013-02-20 01:21:00,
2013-02-19 17:31:00,42.0,39.0,30.76,WNW,297,3.0,5.0,90,0.00,,,0.00,,2013-02-20 01:31:00,
2013-02-19 17:41:00,42.0,39.0,30.76,WNW,297,3.0,5.0,90,0.00,,,0.00,,2013-02-20 01:41:00,
2013-02-19 17:52:00,42.0,-99.9,30.76,North,-999,-999.0,3.0,-999,0.00,,,0.00,,2013-02-20 01:52:00,
2013-02-19 18:02:00,42.0,-99.9,30.76,North,-999,-999.0,3.0,-999,0.00,,,0.00,,2013-02-20 02:02:00,
2013-02-19 18:11:00,42.0,-99.9,30.76,North,-999,-999.0,3.0,-999,0.00,,,0.00,,2013-02-20 02:11:00,